www.pogodaiklimat.ru

Погода и климат >> Архив погоды >> Швеция >> Хемаван аэропорт


ПОГОДА в Хемаван аэропорту

  • Прогноз погоды в Хемаван аэропорту
  • Монитор погоды в Хемаван аэропорту

АРХИВ ПОГОДЫ в Хемаван аэропорту

Время (UTC), дата Ветер
(напр.,м/с)
 
Видим.   Явления Облачность Т
(С)
Тd
(С)
f
(%)
Тe
(С)
Тes
(С)
Комфортность P
(гПа)
Po
(гПа)
Тmin
(С)
Tmax
(С)
R
(мм)
R24
(мм)
S
(см)
19 9.09 ЮВ 3 50 км н/о +8.7 +6.1 84 +6 +6 1022.0 967.1
20 9.09 ЮВ 3 50 км н/о +9.1 +6.0 81 +7 +7 1022.0 967.2
21 9.09 ЮВ 1 50 км н/о +8.7 +6.6 87 +8 +8 1022.0 967.1
22 9.09 В 1 50 км н/о +9.9 +6.6 80 +9 +9 1021.7 967.1
23 9.09 В 1 40 км морось н/о +9.6 +7.3 86 +9 +9 1021.4 966.7
00 10.09 ЮВ 1 50 км слаб. ливневой дождь н/о +9.5 +7.9 90 +9 +9 1021.2 966.5
01 10.09 СВ 1 50 км в посл. час морось н/о +9.0 +8.2 95 +8 +8 1020.9 966.1
02 10.09 СВ 1 35 км н/о +9.5 +8.4 93 +9 +9 1020.4 965.8
03 10.09 В 2 50 км н/о +9.8 +8.7 93 +8 +8 1019.8 965.2
04 10.09 З 1 50 км н/о +10.3 +8.8 90 +10 +10 1019.4 965.0
05 10.09 ЮВ 2 50 км н/о +10.0 +9.0 93 +8 +8 1019.3 964.8
06 10.09 В 1 45 км слаб. ливневой дождь н/о +10.6 +9.3 92 +10 +10 1019.0 964.7 +7.6 +10.6
07 10.09 ЮВ 5 45 км н/о +11.7 +9.7 88 +9 +9 1018.3 964.2
08 10.09 Ю 1 50 км н/о +12.3 +10.0 86 +12 +12 1018.1 964.1
09 10.09 ЮВ 4 50 км н/о +13.0 +10.5 85 +11 +11 1017.5 963.7
10 10.09 Ю 4 45 км н/о +13.0 +10.3 84 +11 +11 1017.1 963.3
11 10.09 Ю 5 50 км н/о +14.3 +10.9 80 +13 +13 1016.2 962.7
12 10.09 ЮВ 4 50 км н/о +14.5 +10.7 78 +13 +13 1016.1 962.7
13 10.09 ЮВ 2 50 км н/о +13.5 +10.6 83 +13 +13 1016.2 962.5
14 10.09 ЮВ 5 50 км н/о +13.8 +10.9 83 +12 +12 1015.3 961.8
15 10.09 Ю 2 50 км н/о +14.2 +10.8 80 +14 +14 1015.2 961.7
16 10.09 Ю 3 50 км слаб. дождь н/о +13.3 +11.0 86 +12 +12 1014.9 961.3
17 10.09 Ю 5 45 км в посл. час дождь н/о +13.4 +11.1 86 +11 +11 1014.2 960.7
18 10.09 ЮВ 3 50 км слаб. ливневой дождь н/о +12.9 +11.3 90 +11 +11 1014.0 960.4 +10.6 +15.3
19 10.09 Ю 3 50 км н/о +13.3 +10.8 85 +12 +12 1013.2 959.7
20 10.09 ЮВ 7 50 км н/о +14.0 +10.8 81 +12 +12 1012.6 959.2
21 10.09 ЮВ 6 50 км н/о +14.3 +10.9 80 +12 +12 1012.6 959.3
22 10.09 ЮВ 6 50 км н/о +14.2 +10.8 80 +12 +12 1011.9 958.6
23 10.09 ЮВ 6 50 км н/о +14.4 +10.8 79 +13 +13 1011.4 958.2
00 11.09 ЮВ 5 50 км н/о +14.3 +10.7 79 +13 +13 1010.9 957.7
01 11.09 ЮВ 6 40 км н/о +13.9 +10.7 81 +12 +12 1010.5 957.3
02 11.09 ЮВ 6 45 км н/о +13.5 +9.7 78 +11 +11 1009.4 956.1
03 11.09 ЮВ 7 40 км н/о +12.6 +9.4 81 +10 +10 1008.8 955.4
04 11.09 ЮВ 5 28 км н/о +12.5 +8.9 79 +10 +10 1008.4 955.0
05 11.09 ЮВ 6 30 км н/о +12.2 +8.8 80 +10 +10 1007.4 954.0
06 11.09 ЮВ 7 35 км н/о +13.2 +9.2 77 +11 +11 1006.4 953.3 +12.0 +14.5
07 11.09 ЮВ 9 30 км н/о +13.6 +9.4 76 +11 +11 1005.8 952.8
08 11.09 ЮВ 9 35 км н/о +13.5 +9.3 76 +11 +11 1005.0 951.9
09 11.09 ЮВ 8 30 км н/о +13.7 +9.3 75 +11 +11 1004.2 951.2
10 11.09 ЮВ 9 40 км н/о +13.8 +9.4 75 +11 +11 1003.2 950.3
11 11.09 ЮВ 8 40 км н/о +13.9 +8.9 72 +11 +11 1002.2 949.4
12 11.09 ЮВ 7 12 км слаб. морось н/о +13.0 +9.2 78 +10 +10 1002.2 949.2
13 11.09 ЮВ 5 35 км в посл. час морось н/о +12.8 +10.1 84 +11 +11 1001.7 948.7
14 11.09 Ю 6 7000 м дождь н/о +13.0 +9.8 81 +11 +11 1001.2 948.3
15 11.09 ЮВ 5 40 км в посл. час дождь н/о +12.2 +10.9 92 +10 +10 1000.9 947.8
16 11.09 ЮВ 4 18 км слаб. дождь н/о +12.3 +10.5 89 +10 +10 999.8 946.8
17 11.09 ЮВ 3 45 км в посл. час дождь н/о +11.9 +10.1 89 +10 +10 999.4 946.4
18 11.09 ЮВ 4 27 км н/о +11.9 +9.9 88 +10 +10 999.0 945.9 +11.6 +14.6
19 11.09 Ю 5 8000 м слаб. дождь н/о +12.2 +10.2 88 +10 +10 998.8 945.8
20 11.09 ЮВ 5 50 км слаб. ливневой дождь н/о +11.4 +9.9 90 +9 +9 998.2 945.1
21 11.09 ЮВ 5 50 км н/о +11.1 +9.6 90 +8 +8 998.2 945.1
22 11.09 Ю 3 6000 м дождь н/о +11.8 +10.0 89 +10 +10 998.2 945.2
23 11.09 штиль 0 35 км слаб. ливневой дождь н/о +10.3 +9.0 92 +10 +10 998.4 945.1
00 12.09 В 1 8000 м дождь н/о +9.7 +9.2 97 +9 +9 998.8 945.4
01 12.09 В 2 40 км слаб. дождь н/о +9.8 +9.0 95 +8 +8 999.0 945.6
02 12.09 ЮВ 1 50 км слаб. ливневой дождь н/о +9.3 +8.5 95 +9 +9 998.9 945.4
03 12.09 Ю 1 45 км слаб. ливневой дождь н/о +9.1 +8.6 97 +8 +8 999.0 945.4
04 12.09 штиль 0 50 км н/о +9.0 +8.2 95 +8 +8 999.2 945.6
05 12.09 З 3 40 км в посл. час дождь н/о +9.0 +7.1 88 +6 +6 999.4 945.8
06 12.09 штиль 0 22 км слаб. ливневой дождь н/о +9.0 +6.9 87 +8 +8 999.5 945.9 +8.3 +12.3
07 12.09 штиль 0 45 км н/о +9.8 +6.8 82 +9 +9 999.6 946.1
08 12.09 Ю 1 40 км н/о +10.0 +7.2 83 +10 +10 999.9 946.4
09 12.09 СЗ 2 50 км н/о +10.7 +6.0 73 +9 +9 1000.0 946.6
10 12.09 З 2 45 км слаб. ливневой дождь н/о +10.2 +6.9 80 +9 +9 1000.6 947.2
11 12.09 З 2 8000 м слаб. ливневой дождь н/о +10.2 +6.3 77 +9 +9 1000.9 947.4
12 12.09 З 3 40 км н/о +10.9 +6.0 72 +9 +9 1001.1 947.7
13 12.09 З 3 50 км н/о +10.5 +5.4 71 +9 +9 1001.5 948.0
14 12.09 СЗ 2 16 км морось н/о +8.7 +6.4 85 +7 +7 1002.1 948.3
15 12.09 СЗ 2 10 км слаб. дождь н/о +7.9 +6.8 93 +6 +6 1002.5 948.5
16 12.09 СВ 1 21 км слаб. ливневой дождь н/о +8.1 +6.5 90 +7 +7 1002.3 948.4
17 12.09 СЗ 1 30 км слаб. ливневой дождь н/о +8.0 +6.4 90 +7 +7 1002.1 948.2
18 12.09 Ю 1 5000 м слаб. ливневой дождь н/о +7.5 +5.4 87 +7 +7 1002.4 948.3 +7.5 +12.2
19 12.09 ЮВ 2 45 км слаб. ливневой дождь н/о +6.9 +5.8 93 +5 +5 1002.4 948.2
20 12.09 З 2 10 км слаб. дождь н/о +7.0 +4.6 85 +5 +5 1002.6 948.4
21 12.09 В 1 50 км в посл. час дождь н/о +6.8 +3.9 82 +6 +6 1002.6 948.3
22 12.09 ЮЗ 1 45 км в посл. час дождь н/о +6.1 +2.9 80 +5 +5 1002.6 948.3
23 12.09 З 2 50 км н/о +5.9 +3.0 82 +4 +4 1002.5 948.1
00 13.09 З 1 45 км н/о +5.8 +3.1 83 +5 +5 1002.6 948.1
01 13.09 СЗ 1 50 км н/о +5.9 +2.8 80 +5 +5 1002.6 948.2
02 13.09 С 1 35 км морось н/о +5.0 +2.3 83 +4 +4 1002.6 948.0
03 13.09 З 1 19 км слаб. ливневой дождь н/о +4.0 +1.7 85 +3 +3 1002.6 947.8
04 13.09 штиль 0 10 км дождь н/о +3.4 +2.5 94 +2 +2 1002.9 948.0
05 13.09 Ю 1 7000 м дождь н/о +3.0 +2.2 94 +1 +1 1003.2 948.2
06 13.09 Ю 1 30 км слаб. дождь н/о +3.6 +3.0 96 +2 +2 1003.7 948.8 +3.0 +7.6
07 13.09 штиль 0 50 км н/о +4.4 +3.8 96 +3 +3 1004.0 949.2
08 13.09 СЗ 1 50 км н/о +5.9 +4.5 91 +5 +5 1004.2 949.7
09 13.09 С 2 50 км н/о +6.8 +4.6 86 +5 +5 1004.7 950.3
10 13.09 СЗ 4 50 км в посл. час дождь н/о +7.0 +3.9 81 +3 +3 1005.5 951.2
11 13.09 СЗ 3 50 км н/о +6.8 +3.0 77 +4 +4 1006.5 952.1
12 13.09 СЗ 5 50 км н/о +7.2 +2.8 74 +3 +3 1007.3 952.9
13 13.09 З 5 45 км н/о +7.6 +2.2 69 +4 +4 1008.2 953.8
14 13.09 СЗ 6 17 км морось н/о +6.1 +1.4 72 +2 +2 1009.1 954.4
15 13.09 З 4 45 км в посл. час морось н/о +5.1 +1.7 79 +1 +1 1010.1 955.1
16 13.09 СЗ 5 30 км слаб. ливневой дождь н/о +5.3 +1.9 79 +1 +1 1010.1 955.2
17 13.09 СЗ 4 45 км в посл. час морось н/о +5.1 +1.9 80 +1 +1 1010.5 955.5
18 13.09 С 2 50 км н/о +4.4 +1.9 84 +2 +2 1010.9 955.7 +3.6 +7.7
19 13.09 З 2 45 км н/о +3.5 +0.7 82 +1 +1 1011.3 956.0
20 13.09 Ю 1 30 км н/о +2.2 +1.3 94 0 0 1011.8 956.1
21 13.09 Ю 1 19 км н/о +0.7 +0.2 96 -1 -1 1012.0 956.1
22 13.09 В 1 30 км н/о +1.8 +1.3 96 -0 -0 1012.0 956.3
23 13.09 З 1 29 км слаб. дождь н/о +4.0 +1.7 85 +3 +3 1011.5 956.2
00 14.09 З 1 23 км слаб. ливневой дождь н/о +3.5 +1.7 88 +2 +2 1011.5 956.1
01 14.09 штиль 0 7000 м слаб. ливневой дождь н/о +3.5 +1.5 87 +2 +2 1011.6 956.2
02 14.09 ЮЗ 1 9000 м ливневой дождь н/о +2.8 +1.9 94 +1 +1 1011.7 956.2
03 14.09 СВ 1 20 км слаб. ливневой дождь н/о +3.1 +2.0 92 +1 +1 1011.6 956.2
04 14.09 ЮВ 1 14 км слаб. ливневой дождь н/о +3.0 +2.1 94 +1 +1 1011.4 956.0
05 14.09 Ю 1 50 км в посл. час морось н/о +3.1 +2.5 96 +1 +1 1011.3 955.9
06 14.09 В 1 50 км в посл. час осадки н/о +3.9 +2.7 92 +2 +2 1011.2 955.9 +0.1 +4.4
07 14.09 З 2 14 км слаб. ливневой дождь н/о +3.6 +1.8 88 +1 +1 1011.6 956.3
08 14.09 штиль 0 13 км слаб. дождь н/о +3.6 +1.8 88 +3 +3 1011.9 956.5
09 14.09 С 1 14 км морось н/о +3.7 +1.9 88 +2 +2 1012.1 956.7
10 14.09 СВ 1 30 км слаб. ливневой дождь н/о +4.4 +2.4 87 +3 +3 1011.9 956.7
11 14.09 штиль 0 11 км слаб. ливневой дождь н/о +5.0 +2.8 86 +4 +4 1011.8 956.7
12 14.09 СЗ 3 45 км в посл. час дождь н/о +6.6 +3.4 80 +4 +4 1011.5 956.8
13 14.09 З 3 45 км н/о +6.2 +2.8 79 +3 +3 1011.1 956.2
14 14.09 СЗ 3 12 км слаб. ливневой дождь н/о +6.4 +2.6 77 +3 +3 1010.9 956.2
15 14.09 З 1 50 км слаб. ливневой дождь н/о +6.3 +2.3 76 +5 +5 1010.2 955.4
16 14.09 штиль 0 45 км слаб. ливневой дождь н/о +5.6 +2.4 80 +5 +5 1009.4 954.5
17 14.09 ЮВ 1 50 км н/о +5.3 +2.1 80 +4 +4 1008.3 953.4
18 14.09 Ю 2 35 км н/о +3.2 +2.4 94 0 0 1007.4 952.2 +3.2 +7.5
19 14.09 ЮВ 3 45 км н/о +2.3 +1.5 94 -2 -2 1006.2 950.9
20 14.09 ЮВ 2 50 км н/о +3.2 +1.7 90 0 0 1004.2 949.1
21 14.09 Ю 3 40 км н/о +4.1 +1.6 84 0 0 1002.5 947.7
22 14.09 ЮВ 5 45 км н/о +5.2 +0.5 72 +1 +1 1000.3 945.9
23 14.09 ЮВ 6 13 км слаб. дождь н/о +4.1 +1.9 86 -1 -1 998.7 944.1
00 15.09 ЮВ 6 10 км слаб. дождь н/о +4.5 +2.2 85 -1 -1 996.4 942.0
01 15.09 ЮВ 7 14 км слаб. дождь н/о +4.2 +2.3 87 -2 -2 994.5 940.2
02 15.09 ЮВ 6 20 км слаб. дождь н/о +4.0 +2.5 90 -2 -2 993.7 939.4
03 15.09 ЮВ 6 20 км слаб. дождь н/о +3.4 +2.2 92 -2 -2 992.5 938.2
04 15.09 ЮВ 4 25 км слаб. дождь н/о +3.3 +2.2 92 -1 -1 991.8 937.5
05 15.09 ЮВ 3 50 км слаб. ливневой дождь н/о +3.3 +2.4 94 -1 -1 990.8 936.5
06 15.09 ЮВ 3 50 км слаб. ливневой дождь н/о +4.0 +2.8 92 0 0 989.9 935.8 +2.1 +5.2
07 15.09 ЮВ 3 50 км слаб. морось н/о +4.4 +3.0 91 +1 +1 989.6 935.6
08 15.09 Ю 3 50 км н/о +5.0 +2.6 84 +2 +2 989.1 935.2
09 15.09 Ю 3 50 км слаб. ливневой дождь н/о +5.6 +3.9 89 +2 +2 988.7 935.0
10 15.09 Ю 3 40 км н/о +6.7 +3.5 80 +4 +4 988.4 934.9
11 15.09 ЮВ 3 50 км н/о +7.6 +2.8 72 +5 +5 988.1 934.8
12 15.09 В 3 50 км н/о +7.9 +2.7 70 +5 +5 988.0 934.8
13 15.09 В 4 45 км н/о +8.3 +2.3 66 +5 +5 987.9 934.8
14 15.09 ЮВ 4 35 км н/о +9.0 +2.5 64 +6 +6 988.0 935.0
15 15.09 ЮВ 4 50 км н/о +7.8 +2.6 70 +5 +5 988.6 935.4
16 15.09 ЮВ 4 50 км н/о +6.8 +1.5 69 +3 +3 989.2 935.7
17 15.09 В 6 50 км н/о +5.9 +1.6 74 +1 +1 990.1 936.4
18 15.09 В 5 50 км н/о +5.8 +0.9 71 +2 +2 990.7 936.9 +4.0 +9.7
19 15.09 ЮВ 4 50 км н/о +4.4 +0.5 76 0 0 991.9 937.8
20 15.09 ЮЗ 1 50 км н/о +3.3 +0.5 82 +2 +2 992.7 938.3
21 15.09 штиль 0 50 км н/о +4.2 +1.9 85 +3 +3 993.1 938.9
22 15.09 ЮВ 3 50 км н/о +5.1 +1.9 80 +2 +2 993.8 939.7
23 15.09 Ю 1 50 км н/о +4.0 +2.0 87 +3 +3 994.8 940.5
00 16.09 ЮЗ 2 50 км н/о +4.5 +2.0 84 +2 +2 995.1 940.9
01 16.09 С 1 50 км н/о +4.1 +2.1 87 +3 +3 995.8 941.4
02 16.09 З 1 50 км н/о +4.8 +1.9 81 +4 +4 996.2 941.9
03 16.09 Ю 2 50 км н/о +5.2 +2.0 80 +3 +3 996.5 942.3
04 16.09 Ю 4 50 км н/о +4.7 +2.2 84 +1 +1 996.9 942.6
05 16.09 В 1 50 км н/о +4.7 +2.2 84 +3 +3 997.4 943.0
06 16.09 ЮВ 1 50 км н/о +5.0 +1.4 78 +4 +4 997.7 943.3 +3.1 +5.8
07 16.09 Ю 3 50 км н/о +5.8 +1.3 73 +3 +3 997.9 943.7
08 16.09 Ю 4 50 км н/о +6.7 +1.6 70 +3 +3 998.1 944.1
09 16.09 Ю 3 50 км н/о +6.5 0.0 63 +4 +4 998.4 944.3
10 16.09 Ю 3 45 км н/о +6.9 +1.2 67 +4 +4 998.5 944.5
11 16.09 Ю 2 50 км н/о +7.9 +2.1 67 +6 +6 998.5 944.7
12 16.09 ЮВ 1 45 км н/о +8.0 +1.1 62 +8 +8 998.2 944.5
14 16.09 Ю 2 50 км н/о +8.3 +1.9 64 +7 +7 998.0 944.3
15 16.09 Ю 2 50 км н/о +8.0 +1.6 64 +6 +6 998.0 944.2
16 16.09 ЮВ 3 50 км н/о +7.4 +2.0 69 +5 +5 997.9 944.0
17 16.09 ЮВ 2 50 км слаб. морось н/о +6.3 +3.1 80 +4 +4 998.1 944.0
18 16.09 штиль 0 50 км н/о +5.3 +2.8 84 +4 +4 998.4 944.1 +5.0 +8.8
19 16.09 СЗ 1 50 км н/о +4.0 +2.8 92 +2 +2 998.7 944.2

 

Местоположение метеостанции Хемаван аэропорт (Швеция): широта 65.80 долгота 15.08 высота над уровнем моря 463 м.

В архиве по умолчанию представлена погода в Хемаван аэропорту за последнюю неделю. Архивные данные за месяц целиком и за предыдущие месяцы, начиная с января 2011 года, Вы можете получить, выбрав интересующий диапазон дат из раскрывающегося списка и нажав кнопку "Ввод!".


*Определитесь, кто Вы:
робот инопланетянин человек

Внимание! Время в таблицах - всемирное. Для получения местного времени необходимо прибавить поправку, которая равна 1 ч.

Смотрите также архив погоды в соседних городах и на ближайших метеорологических станциях:

Погода в Хемаван Skorvfjallet (Швеция) (2 км)
Погода в Варнтреске (Норвегия) (8 км)
Погода в Сакснасе (Швеция) (33 км)
Погода в Гиеласе (Швеция) (52 км)
Погода в Сторфоршее (Норвегия) (71 км)
Погода в Аэропорту Mo i Rana (Норвегия) (72 км)
Погода в Скамдале (Норвегия) (72 км)
Погода в Сельджеля (Норвегия) (77 км)
Погода в Хяртасене (Норвегия) (78 км)
Погода в Стекенйокке (Швеция) (82 км)

Пояснения к столбцам:

Ветер - указаны скорость ветра в м/с - средняя за 10 мин, порывы в срок и между сроками (в фигурных скобках) и направление, откуда дует ветер: С - северный, СВ - северо-восточный, В - восточный, ЮВ - юго-восточный, Ю - южный, ЮЗ - юго-западный, З - западный, СЗ - северо-западный.
Видимость - горизонтальная дальность видимости в метрах или километрах. При видимости от 1 до 10 км при отсутствии осадков обычно наблюдается дымка, при ухудшении видимости до 1 км и менее - туман. В сухую погоду видимость может ухудшаться дымом, пылью или мглою.
Явления - указаны атмосферные явления, наблюдавшиеся в срок или в последний час перед сроком; фигурными скобками обозначены явления, наблюдавшиеся между сроками (за 1-3 часа до срока); квадратными скобками обозначены град или гололедные отложения с указанием их диаметра в мм.
Облачность - указаны через наклонную черту общая и нижняя облачность в баллах и высота нижней границы облаков в метрах; квадратными скобками обозначены формы облаков: Ci - перистые, Cs - перисто-слоистые, Cc - перисто-кучевые, Ac - высококучевые, As - высокослоистые, Sc - слоисто-кучевые, Ns - слоисто-дождевые, Cu - кучевые, Cb - кучево-дождевые. Подробнее классификацию облаков см. в Атласе облаков (PDF).
T - Температура воздуха - температура, измеренная на высоте 2 м над землей.
Td - Температура точки росы - температура, при понижении до которой содержащийся в воздухе водяной пар достигнет насыщения.
f - Относительная влажность воздуха - влажноcть воздуха, измеренная на высоте 2 м над землей.
Te - Эффективная температура - температура, которую ощущает одетый по сезону человек в тени. Характеристика душности погоды. При расчете учитывается влияние влажности воздуха и скорости ветра на теплоощущения человека.
Tes - Эффективная температура на солнце - температура, которую ощущает человек, с поправкой на солнечный нагрев. Характеристика знойности погоды. Зависит от высоты солнца над горизонтом, облачности и скорости ветра. Ночью, в пасмурную погоду, а также при ветре 12 м/с и более поправка равна нулю.
P - Атмосферное давление - приведенное к уровню моря атмосферное давление.
Po - Атмосферное давление - измеренное на уровне метеостанции атмосферное давление.
Tmin - Минимальная температура - минимум температуры воздуха на высоте 2 м над землей.
Tmax - Максимальная температура - максимум температуры воздуха на высоте 2 м над землей.
R - Количество осадков - Количество выпавших осадков за период времени, мм. При наведении курсора мыши на число - период времени, за который выпало указанное количество осадков.
R24 - Количество осадков - Количество выпавших осадков за 24 часа, мм.
S - Снежный покров - Высота снежного покрова, см. При наведении курсора мыши на число - состояние снежного покрова и степень покрытия местности в баллах.